Time,TemperatureF,DewpointF,PressureIn,WindDirection,WindDirectionDegrees,WindSpeedMPH,WindSpeedGustMPH,Humidity,HourlyPrecipIn,Conditions,Clouds,dailyrainin,SoftwareType,DateUTC
2013-06-12 00:02:00,47.0,43.0,30.14,SW,225,0.0,0.0,87,0.00,,,0.14,,2013-06-12 06:02:00,
2013-06-12 00:12:00,47.0,43.0,30.14,SW,225,0.0,0.0,87,0.00,,,0.14,,2013-06-12 06:12:00,
2013-06-12 00:22:00,47.0,44.0,30.14,East,90,0.0,2.0,88,0.00,,,0.14,,2013-06-12 06:22:00,
2013-06-12 00:32:00,46.0,43.0,30.15,SE,135,0.0,2.0,88,0.00,,,0.14,,2013-06-12 06:32:00,
2013-06-12 00:42:00,46.0,43.0,30.15,SE,135,0.0,2.0,88,0.00,,,0.14,,2013-06-12 06:42:00,
2013-06-12 00:52:00,46.0,43.0,30.16,SE,135,2.0,3.0,90,0.00,,,0.14,,2013-06-12 06:52:00,
2013-06-12 01:02:00,46.0,43.0,30.16,South,180,0.0,2.0,90,0.00,,,0.14,,2013-06-12 07:02:00,
2013-06-12 01:12:00,46.0,44.0,30.16,South,180,0.0,3.0,91,0.00,,,0.14,,2013-06-12 07:12:00,
2013-06-12 01:22:00,46.0,44.0,30.16,South,180,2.0,3.0,91,0.00,,,0.14,,2013-06-12 07:22:00,
2013-06-12 01:33:00,46.0,44.0,30.16,SE,135,1.0,3.0,91,0.00,,,0.14,,2013-06-12 07:33:00,
2013-06-12 01:43:00,46.0,44.0,30.15,SE,135,2.0,2.0,91,0.00,,,0.14,,2013-06-12 07:43:00,
2013-06-12 01:53:00,46.0,44.0,30.15,South,180,0.0,2.0,91,0.00,,,0.14,,2013-06-12 07:53:00,
2013-06-12 02:02:00,46.0,44.0,30.15,NE,45,1.0,2.0,92,0.00,,,0.14,,2013-06-12 08:02:00,
2013-06-12 02:11:00,46.0,44.0,30.16,South,180,0.0,1.0,92,0.00,,,0.14,,2013-06-12 08:11:00,
2013-06-12 02:22:00,45.0,43.0,30.15,South,180,1.0,2.0,92,0.00,,,0.14,,2013-06-12 08:22:00,
2013-06-12 02:33:00,45.0,43.0,30.16,SE,135,2.0,4.0,91,0.00,,,0.14,,2013-06-12 08:33:00,
2013-06-12 02:42:00,44.0,42.0,30.17,SE,135,0.0,2.0,91,0.00,,,0.14,,2013-06-12 08:42:00,
2013-06-12 02:52:00,44.0,42.0,30.16,South,180,0.0,2.0,91,0.00,,,0.14,,2013-06-12 08:52:00,
2013-06-12 03:01:00,44.0,42.0,30.17,South,180,2.0,4.0,92,0.00,,,0.14,,2013-06-12 09:01:00,
2013-06-12 03:11:00,44.0,42.0,30.17,SE,135,0.0,2.0,92,0.00,,,0.14,,2013-06-12 09:11:00,
2013-06-12 03:22:00,44.0,42.0,30.17,SE,135,2.0,2.0,92,0.00,,,0.14,,2013-06-12 09:22:00,
2013-06-12 03:33:00,45.0,43.0,30.17,South,180,4.0,5.0,93,0.00,,,0.14,,2013-06-12 09:33:00,
2013-06-12 03:42:00,45.0,43.0,30.17,South,180,2.0,3.0,93,0.00,,,0.14,,2013-06-12 09:42:00,
2013-06-12 03:53:00,46.0,44.0,30.17,SE,135,4.0,7.0,93,0.00,,,0.14,,2013-06-12 09:53:00,
2013-06-12 04:01:00,46.0,44.0,30.17,NW,315,0.0,5.0,91,0.00,,,0.14,,2013-06-12 10:01:00,
2013-06-12 04:11:00,46.0,43.0,30.17,South,180,0.0,0.0,90,0.00,,,0.14,,2013-06-12 10:11:00,
2013-06-12 04:22:00,46.0,43.0,30.17,SE,135,1.0,4.0,89,0.00,,,0.14,,2013-06-12 10:22:00,
2013-06-12 04:32:00,45.0,42.0,30.17,South,180,1.0,2.0,89,0.00,,,0.14,,2013-06-12 10:32:00,
2013-06-12 04:43:00,45.0,42.0,30.16,SE,135,2.0,4.0,88,0.00,,,0.14,,2013-06-12 10:43:00,
2013-06-12 04:53:00,45.0,42.0,30.16,South,180,1.0,2.0,88,0.00,,,0.14,,2013-06-12 10:53:00,
2013-06-12 05:01:00,45.0,42.0,30.16,South,180,4.0,5.0,88,0.00,,,0.14,,2013-06-12 11:01:00,
2013-06-12 05:12:00,45.0,42.0,30.16,South,180,2.0,3.0,88,0.00,,,0.14,,2013-06-12 11:12:00,
2013-06-12 05:24:00,45.0,42.0,30.19,East,90,1.0,2.0,89,0.00,,,0.14,,2013-06-12 11:24:00,
2013-06-12 05:33:00,45.0,42.0,30.19,South,180,3.0,5.0,88,0.00,,,0.14,,2013-06-12 11:33:00,
2013-06-12 05:42:00,44.0,41.0,30.20,South,180,2.0,4.0,88,0.00,,,0.14,,2013-06-12 11:42:00,
2013-06-12 05:53:00,44.0,40.0,30.20,SE,135,2.0,4.0,87,0.00,,,0.14,,2013-06-12 11:53:00,
2013-06-12 06:01:00,44.0,40.0,30.20,SE,135,0.0,4.0,86,0.00,,,0.14,,2013-06-12 12:01:00,
2013-06-12 06:11:00,45.0,41.0,30.20,North,0,1.0,3.0,87,0.00,,,0.14,,2013-06-12 12:11:00,
2013-06-12 06:23:00,45.0,41.0,30.20,NE,45,0.0,2.0,86,0.00,,,0.14,,2013-06-12 12:23:00,
2013-06-12 06:33:00,45.0,41.0,30.20,SE,135,0.0,4.0,86,0.00,,,0.14,,2013-06-12 12:33:00,
2013-06-12 06:42:00,45.0,41.0,30.20,SE,135,2.0,4.0,85,0.00,,,0.14,,2013-06-12 12:42:00,
2013-06-12 06:53:00,46.0,42.0,30.20,South,180,1.0,4.0,85,0.00,,,0.14,,2013-06-12 12:53:00,
2013-06-12 07:01:00,46.0,41.0,30.20,SE,135,2.0,2.0,84,0.00,,,0.14,,2013-06-12 13:01:00,
2013-06-12 07:11:00,46.0,41.0,30.20,SE,135,2.0,4.0,81,0.00,,,0.14,,2013-06-12 13:11:00,
2013-06-12 07:22:00,46.0,40.0,30.20,SE,135,4.0,6.0,80,0.00,,,0.14,,2013-06-12 13:22:00,
2013-06-12 07:32:00,47.0,41.0,30.20,NW,315,4.0,6.0,79,0.00,,,0.14,,2013-06-12 13:32:00,
2013-06-12 07:43:00,47.0,41.0,30.20,SE,135,0.0,2.0,80,0.00,,,0.14,,2013-06-12 13:43:00,
2013-06-12 07:53:00,47.0,41.0,30.20,South,180,0.0,2.0,81,0.00,,,0.14,,2013-06-12 13:53:00,
2013-06-12 08:01:00,47.0,42.0,30.20,West,270,0.0,2.0,82,0.00,,,0.14,,2013-06-12 14:01:00,
2013-06-12 08:11:00,47.0,42.0,30.19,South,180,0.0,2.0,82,0.00,,,0.14,,2013-06-12 14:11:00,
2013-06-12 08:23:00,47.0,42.0,30.20,South,180,1.0,2.0,83,0.00,,,0.14,,2013-06-12 14:23:00,
2013-06-12 08:33:00,47.0,42.0,30.20,South,180,1.0,2.0,83,0.00,,,0.14,,2013-06-12 14:33:00,
2013-06-12 08:43:00,48.0,44.0,30.19,West,270,3.0,4.0,85,0.00,,,0.14,,2013-06-12 14:43:00,
2013-06-12 08:53:00,49.0,45.0,30.20,South,180,2.0,4.0,86,0.00,,,0.14,,2013-06-12 14:53:00,
2013-06-12 09:01:00,49.0,44.0,30.22,East,90,2.0,3.0,82,0.00,,,0.14,,2013-06-12 15:01:00,
2013-06-12 09:11:00,49.0,43.0,30.19,SE,135,0.0,3.0,81,0.01,,,0.15,,2013-06-12 15:11:00,
2013-06-12 09:23:00,50.0,44.0,30.19,South,180,1.0,6.0,81,0.01,,,0.15,,2013-06-12 15:23:00,
2013-06-12 09:32:00,51.0,45.0,30.20,West,270,0.0,4.0,80,0.01,,,0.15,,2013-06-12 15:32:00,
2013-06-12 10:32:00,57.0,45.0,30.19,West,270,0.0,2.0,65,0.00,,,0.15,,2013-06-12 16:32:00,
2013-06-12 10:43:00,56.0,43.0,30.19,South,180,0.0,2.0,62,0.00,,,0.15,,2013-06-12 16:43:00,
2013-06-12 10:52:00,56.0,43.0,30.20,South,180,0.0,2.0,62,0.00,,,0.15,,2013-06-12 16:52:00,
2013-06-12 11:01:00,56.0,43.0,30.19,NE,45,1.0,2.0,62,0.00,,,0.15,,2013-06-12 17:01:00,
2013-06-12 11:11:00,56.0,44.0,30.19,WNW,293,0.0,1.0,64,0.00,,,0.15,,2013-06-12 17:11:00,
2013-06-12 12:22:00,57.0,43.0,30.19,North,0,1.0,2.0,59,0.00,,,0.15,,2013-06-12 18:22:00,
2013-06-12 12:32:00,57.0,44.0,30.19,West,270,0.0,2.0,61,0.00,,,0.15,,2013-06-12 18:32:00,
2013-06-12 13:01:00,59.0,42.0,30.19,NW,315,0.0,2.0,54,0.01,,,0.16,,2013-06-12 19:01:00,
2013-06-12 13:11:00,59.0,42.0,30.18,SE,135,1.0,2.0,54,0.01,,,0.16,,2013-06-12 19:11:00,
2013-06-12 13:22:00,59.0,41.0,30.19,NE,45,0.0,1.0,51,0.01,,,0.16,,2013-06-12 19:22:00,
2013-06-12 13:32:00,59.0,41.0,30.19,East,90,0.0,2.0,51,0.01,,,0.16,,2013-06-12 19:32:00,
2013-06-12 13:42:00,60.0,42.0,30.19,East,90,0.0,2.0,52,0.01,,,0.16,,2013-06-12 19:42:00,
2013-06-12 13:52:00,61.0,45.0,30.19,SW,225,0.0,4.0,55,0.01,,,0.16,,2013-06-12 19:52:00,
2013-06-12 14:32:00,66.0,44.0,30.19,North,0,3.0,5.0,45,0.00,,,0.16,,2013-06-12 20:32:00,
2013-06-12 14:42:00,65.0,43.0,30.19,South,180,0.0,4.0,45,0.00,,,0.16,,2013-06-12 20:42:00,
2013-06-12 14:54:00,65.0,43.0,30.18,South,180,4.0,6.0,44,0.00,,,0.16,,2013-06-12 20:54:00,
2013-06-12 15:11:00,64.0,41.0,30.18,North,0,2.0,7.0,43,0.00,,,0.16,,2013-06-12 21:11:00,
2013-06-12 15:21:00,65.0,43.0,30.17,North,0,2.0,3.0,45,0.00,,,0.16,,2013-06-12 21:21:00,
2013-06-12 15:33:00,67.0,44.0,30.17,North,0,3.0,10.0,44,0.00,,,0.16,,2013-06-12 21:33:00,
2013-06-12 15:43:00,65.0,41.0,30.16,SE,135,2.0,8.0,42,0.00,,,0.16,,2013-06-12 21:43:00,
2013-06-12 15:52:00,66.0,45.0,30.16,NW,315,3.0,9.0,46,0.00,,,0.16,,2013-06-12 21:52:00,
2013-06-12 16:22:00,71.0,48.0,30.16,West,270,4.0,8.0,44,0.00,,,0.16,,2013-06-12 22:22:00,
2013-06-12 16:32:00,69.0,43.0,30.16,ENE,68,2.0,7.0,39,0.00,,,0.16,,2013-06-12 22:32:00,
2013-06-12 16:43:00,68.0,45.0,30.16,NW,315,4.0,6.0,44,0.00,,,0.16,,2013-06-12 22:43:00,
2013-06-12 17:22:00,68.0,43.0,30.14,North,0,3.0,5.0,41,0.00,,,0.16,,2013-06-12 23:22:00,
2013-06-12 17:32:00,69.0,45.0,30.14,North,0,4.0,6.0,42,0.00,,,0.16,,2013-06-12 23:32:00,
2013-06-12 17:42:00,67.0,43.0,30.14,North,0,2.0,4.0,42,0.00,,,0.16,,2013-06-12 23:42:00,
2013-06-12 17:52:00,67.0,43.0,30.14,North,0,3.0,6.0,41,0.00,,,0.16,,2013-06-12 23:52:00,
2013-06-12 18:01:00,65.0,41.0,30.14,North,0,2.0,4.0,42,0.00,,,0.16,,2013-06-13 00:01:00,
2013-06-12 18:11:00,65.0,42.0,30.13,NE,45,1.0,3.0,43,0.00,,,0.16,,2013-06-13 00:11:00,
2013-06-12 18:22:00,66.0,43.0,30.13,South,180,3.0,5.0,43,0.00,,,0.16,,2013-06-13 00:22:00,
2013-06-12 18:32:00,66.0,43.0,30.13,South,180,3.0,5.0,43,0.00,,,0.16,,2013-06-13 00:32:00,
2013-06-12 18:42:00,66.0,43.0,30.13,South,180,3.0,5.0,43,0.00,,,0.16,,2013-06-13 00:42:00,
2013-06-12 18:52:00,66.0,43.0,30.13,South,180,3.0,5.0,43,0.00,,,0.16,,2013-06-13 00:52:00,
2013-06-12 19:01:00,66.0,43.0,30.13,South,180,3.0,5.0,43,0.00,,,0.16,,2013-06-13 01:01:00,
2013-06-12 21:33:00,60.0,44.0,30.14,South,180,1.0,2.0,56,0.00,,,0.02,,2013-06-13 03:33:00,
2013-06-12 21:43:00,59.0,44.0,30.13,South,180,1.0,3.0,57,0.00,,,0.02,,2013-06-13 03:43:00,
2013-06-12 21:52:00,59.0,44.0,30.13,South,180,1.0,2.0,58,0.00,,,0.02,,2013-06-13 03:52:00,
2013-06-12 22:01:00,57.0,44.0,30.13,SE,135,0.0,2.0,62,0.00,,,0.02,,2013-06-13 04:01:00,
2013-06-12 22:11:00,57.0,45.0,30.13,South,180,0.0,0.0,64,0.00,,,0.02,,2013-06-13 04:11:00,
2013-06-12 22:22:00,56.0,44.0,30.12,South,180,1.0,2.0,65,0.00,,,0.02,,2013-06-13 04:22:00,
2013-06-12 22:32:00,54.0,43.0,30.14,SE,135,2.0,4.0,66,0.00,,,0.02,,2013-06-13 04:32:00,
2013-06-12 22:43:00,53.0,42.0,30.14,South,180,0.0,3.0,67,0.00,,,0.02,,2013-06-13 04:43:00,
2013-06-12 22:53:00,52.0,42.0,30.14,South,180,0.0,0.0,68,0.00,,,0.02,,2013-06-13 04:53:00,
2013-06-12 23:01:00,51.0,42.0,30.13,SE,135,0.0,5.0,70,0.00,,,0.02,,2013-06-13 05:01:00,
2013-06-12 23:11:00,51.0,42.0,30.14,SE,135,2.0,3.0,71,0.00,,,0.02,,2013-06-13 05:11:00,
2013-06-12 23:23:00,50.0,41.0,30.14,North,0,0.0,4.0,72,0.00,,,0.02,,2013-06-13 05:23:00,
2013-06-12 23:32:00,49.0,41.0,30.13,SE,135,2.0,3.0,73,0.00,,,0.02,,2013-06-13 05:32:00,
2013-06-12 23:42:00,49.0,41.0,30.14,SE,135,0.0,2.0,75,0.00,,,0.02,,2013-06-13 05:42:00,
2013-06-12 23:52:00,49.0,42.0,30.14,SE,135,0.0,1.0,76,0.00,,,0.02,,2013-06-13 05:52:00,